Pagina principale
METAR-TAF:

METAR-TAF

Aeroporti :

Aeroporto di Forlì

Forlì, Italia

latitudine: 44-12N, longitudine: 012-04E, altezza: 27 m

Osservazione

Il bollettino è stato emesso 10 ore e 24 minuti fa, alle 15:50 UTC
Vento 7 kt da sud-est
Temperature 23°C
Umidità 57%
Pressione 1010 hPa
Visibilità 10 km o più
Poco nuvoloso ad un'altezza di 2500 ft

METAR: LIPK 151550Z 13007KT 9999 FEW025 23/14 Q1010

Ora: 04:14 (02:14 UTC)


TAF: mancante

Osservazioni e previsioni meteorologiche di più di 4000 aeroporti (messaggi METAR e TAF).

Le stazioni disponibili sono rappresentate dai dischi gialli e rossi sulla carta.

Puntare il mouse per vedere il nome della stazione.

Clicca sopra per visualizzare le osservazioni e previsioni meteorologiche.

Per cambiare la mappa : fare clic sui pulsanti verdi con una croce nera per ingrandire, il pulsante verde con un trattino per diminuire, o sulla freccia verde per le mappe adiacenti.


METAR-TAF: